"Pseudo-MPEC" for p0005Q

Created 2025 May 27 17:31:11 UT using Find_Orb

Click here for an explanation of pseudo-MPECs

 
 Astrometry: 
     p0005Q * C2025 05 04.32311914 27 35.180+13 03 17.35   ~54Cl 22.12wXNEOCPF52
     p0005Q   C2025 05 04.33391814 27 34.550+13 03 42.08   ~54Cl 22.16wXNEOCPF52
     p0005Q   C2025 05 04.34469914 27 33.893+13 04 06.74   ~54Cl 22.09wXNEOCPF52
     p0005Q   C2025 05 04.35551214 27 33.232+13 04 31.15   ~54Cl 22.26wXNEOCPF52
     p0005Q  3C2025 05 05.30233214 26 47.480+13 39 03.17   ~5582 22.29GVNEOCPT14
     p0005Q  3C2025 05 05.30330914 26 47.432+13 39 05.23   ~5582 22.27GVNEOCPT14
     p0005Q  3C2025 05 05.30931514 26 47.083+13 39 18.16   ~5582 22.24GVNEOCPT14
     p0005Q  3C2025 05 05.31032114 26 47.027+13 39 20.37   ~558l 22.15GVNEOCPT14
     p0005Q  3C2025 05 05.31131214 26 46.977+13 39 22.46   ~558l 22.16GVNEOCPT14

Station data:
(F52) Pan-STARRS 2, Haleakala  (N20.707382 W156.255910)  US/Hawaii.
   Observers J. Bulger, T. Dukes, T. Lowe, A. Schultz, M. Willman. Measurers
   K. Chambers, S. Chastel, T. de Boer, L. Denneau, J. Fairlamb, H.
   Flewelling, M. Huber, C.-C. Lin, E. Magnier, Y. Ramanjooloo, R. Wainscoat,
   R. Weryk. 1.8-m Ritchey-Chrétien + CCD.
(T14) Mauna Kea-UH/Tholen NEO Follow-Up (CFHT)  (N19.825252 W155.468876)
   US/Hawaii.  Observer R. Weryk. 3.6-m Canada-France-Hawaii Telescope.

Orbital elements:  p0005Q
   Perihelion 2025 Jan 16.17371 +/- 7.54 TT =  4:10:08 (JD 2460691.67371)
Epoch 2025 May  5.0 TT = JDT 2460800.5   Earth MOID: 0.1506      AutoNEOCP
M  71.94728123 +/- 8                (J2000 ecliptic)
n   0.66112042 +/- 0.0324           Peri.  278.00596 +/- 0.9
a   1.30501548 +/- 0.0426           Node   203.89321 +/- 1.3
e   0.2461601 +/- 0.0601            Incl.   19.72588 +/- 1.8
P   1.491/544.520d         H 23.23  G  0.15   U 10.4
q 0.98377264 +/- 0.0504    Q 1.62625832 +/- 0.129
From 9 observations 2025 May 4-5 (23.7 hr); mean residual 0".07
Residuals in arcseconds: 
250504 F52  .12-  .09-    250504 F52  .05-  .04-    250505 T14  .05-  .01-    
250504 F52  .13+  .01+    250505 T14  .04-  .00     250505 T14  .03-  .04+    
250504 F52  .03+  .12+    250505 T14  .07+  .04-    250505 T14  .06+  .01+    

Ephemerides (geocentric):
Date (UTC) HH   RA             Dec           delta  r     elong  mag " sig PA
---- --------  ------------   ------------  ------ ------ -----  --- --------
2025 05 27 18  14 19 13.479   +19 42 07.38  .47362 1.3654 129.7 23.7 86.7 170
2025 05 27 19  14 19 13.746   +19 42 13.22  .47396 1.3656 129.7 23.7 86.5 170
2025 05 27 20  14 19 14.017   +19 42 18.97  .47430 1.3657 129.7 23.7 86.4 170
2025 05 27 21  14 19 14.292   +19 42 24.62  .47464 1.3659 129.6 23.7 86.2 170
2025 05 27 22  14 19 14.570   +19 42 30.20  .47498 1.3660 129.6 23.7 86.0 170
2025 05 27 23  14 19 14.853   +19 42 35.68  .47532 1.3661 129.6 23.7 85.9 170
2025 05 28 00  14 19 15.139   +19 42 41.07  .47566 1.3663 129.5 23.7 85.7 171
2025 05 28 01  14 19 15.430   +19 42 46.38  .47600 1.3664 129.5 23.7 85.5 171
2025 05 28 02  14 19 15.724   +19 42 51.60  .47635 1.3666 129.5 23.7 85.3 171
2025 05 28 03  14 19 16.022   +19 42 56.73  .47669 1.3667 129.4 23.7 85.2 171
2025 05 28 04  14 19 16.324   +19 43 01.78  .47703 1.3669 129.4 23.7 85.0 171
2025 05 28 05  14 19 16.630   +19 43 06.74  .47737 1.3670 129.4 23.7 84.8 171
2025 05 28 06  14 19 16.940   +19 43 11.61  .47771 1.3672 129.4 23.7 84.6 171
2025 05 28 07  14 19 17.253   +19 43 16.39  .47805 1.3673 129.3 23.7 84.5 171
2025 05 28 08  14 19 17.571   +19 43 21.09  .47840 1.3675 129.3 23.8 84.3 171
2025 05 28 09  14 19 17.892   +19 43 25.70  .47874 1.3676 129.3 23.8 84.1 172
2025 05 28 10  14 19 18.217   +19 43 30.23  .47908 1.3677 129.2 23.8 83.9 172
2025 05 28 11  14 19 18.546   +19 43 34.67  .47942 1.3679 129.2 23.8 83.7 172
2025 05 28 12  14 19 18.879   +19 43 39.02  .47977 1.3680 129.2 23.8 83.5 172
2025 05 28 13  14 19 19.216   +19 43 43.29  .48011 1.3682 129.1 23.8 83.3 172
2025 05 28 14  14 19 19.556   +19 43 47.47  .48045 1.3683 129.1 23.8 83.1 172
2025 05 28 15  14 19 19.900   +19 43 51.57  .48079 1.3685 129.1 23.8 83.0 172
2025 05 28 16  14 19 20.249   +19 43 55.58  .48114 1.3686 129.1 23.8 82.8 172
2025 05 28 17  14 19 20.601   +19 43 59.51  .48148 1.3688 129.0 23.8 82.6 173
2025 05 28 18  14 19 20.957   +19 44 03.35  .48182 1.3689 129.0 23.8 82.4 173
2025 05 28 19  14 19 21.316   +19 44 07.11  .48217 1.3690 129.0 23.8 82.2 173
2025 05 28 20  14 19 21.680   +19 44 10.78  .48251 1.3692 128.9 23.8 82.0 173
2025 05 28 21  14 19 22.047   +19 44 14.37  .48285 1.3693 128.9 23.8 81.8 173
2025 05 28 22  14 19 22.419   +19 44 17.88  .48320 1.3695 128.9 23.8 81.6 173
2025 05 28 23  14 19 22.794   +19 44 21.30  .48354 1.3696 128.9 23.8 81.4 173
2025 05 29 00  14 19 23.173   +19 44 24.64  .48388 1.3698 128.8 23.8 81.2 174
2025 05 29 01  14 19 23.556   +19 44 27.89  .48423 1.3699 128.8 23.8 81.0 174
2025 05 29 02  14 19 23.942   +19 44 31.06  .48457 1.3700 128.8 23.8 80.8 174
2025 05 29 03  14 19 24.333   +19 44 34.15  .48491 1.3702 128.7 23.8 80.6 174
2025 05 29 04  14 19 24.727   +19 44 37.15  .48526 1.3703 128.7 23.8 80.3 174
2025 05 29 05  14 19 25.125   +19 44 40.07  .48560 1.3705 128.7 23.8 80.1 174
2025 05 29 06  14 19 25.527   +19 44 42.91  .48595 1.3706 128.6 23.8 79.9 174
2025 05 29 07  14 19 25.932   +19 44 45.66  .48629 1.3708 128.6 23.8 79.7 175
2025 05 29 08  14 19 26.342   +19 44 48.34  .48663 1.3709 128.6 23.8 79.5 175
2025 05 29 09  14 19 26.755   +19 44 50.93  .48698 1.3711 128.6 23.8 79.3 175
2025 05 29 10  14 19 27.172   +19 44 53.44  .48732 1.3712 128.5 23.8 79.1 175
2025 05 29 11  14 19 27.593   +19 44 55.86  .48767 1.3713 128.5 23.8 78.9 175
2025 05 29 12  14 19 28.018   +19 44 58.21  .48801 1.3715 128.5 23.8 78.6 175
2025 05 29 13  14 19 28.446   +19 45 00.47  .48836 1.3716 128.4 23.8 78.4 176
2025 05 29 14  14 19 28.879   +19 45 02.65  .48870 1.3718 128.4 23.8 78.2 176
2025 05 29 15  14 19 29.315   +19 45 04.75  .48905 1.3719 128.4 23.8 78.0 176
2025 05 29 16  14 19 29.755   +19 45 06.77  .48939 1.3721 128.4 23.8 77.8 176
2025 05 29 17  14 19 30.198   +19 45 08.71  .48974 1.3722 128.3 23.8 77.5 176